Weather History for Phnom Penh, Cambodia

Change the Weather History Date:

Saturday, October 13, 2012

  Actual Average Record
Temperature  
Mean Temperature 81 °F -  
Max Temperature 87 °F 84 °F 89 °F (1999)
Min Temperature 75 °F 76 °F 75 °F (2000)
Cooling Degree Days 16    
Growing Degree Days 31 (Base 50)    
Moisture  
Dew Point 74 °F    
Average Humidity 77    
Maximum Humidity 89    
Minimum Humidity 58    
Precipitation  
Precipitation 0.00 in - - ()
Sea Level Pressure  
Sea Level Pressure 29.85 in    
Wind  
Wind Speed 4 mph ()    
Max Wind Speed 15 mph    
Max Gust Speed -    
Visibility 5.6 miles    
Events Rain , Thunderstorm    
Averages and records for this station are not official NWS values.
T = Trace of Precipitation, MM = Missing Value Source: Averaged Metar Reports

Daily Weather History Graph

Daily Weather History Graph

Search for Another Location

Airport:

Trip Planner

Search our weather history database for the weather conditions in past years. The results will help you decide how hot, cold, wet, or windy it might be!

Date:

Astronomy

Oct. 13, 2012 Rise Set
Actual Time 5:49 AM ICT 5:43 PM ICT
Civil Twilight 5:28 AM ICT 6:04 PM ICT
Nautical Twilight 5:03 AM ICT 6:29 PM ICT
Astronomical Twilight 4:39 AM ICT 6:54 PM ICT
Moon 3:27 AM ICT (10/13) 3:51 PM ICT (10/13)
Length of Visible Light 12h 36m
Length of Day
11h 53m
Waning Crescent, 7% of the Moon is Illuminated
Oct 13
Waning Crescent
Oct 15
New
Oct 22
First Quarter
Oct 30
Full
Nov 7
Last Quarter

Hourly Weather History & Observations

Time (ICT) Temp. Heat Index Dew Point Humidity Pressure Visibility Wind Dir Wind Speed Gust Speed Precip Events Conditions
6:00 AM 80.6 °F 86.2 °F 75.2 °F 84% 29.86 in 5.0 mi West 5.8 mph - N/A   Scattered Clouds
6:30 AM 78.8 °F - 73.4 °F 83% 29.86 in 5.0 mi ESE 11.5 mph - N/A   Haze
7:00 AM 78.8 °F - 73.4 °F 83% 29.86 in 5.0 mi ENE 3.5 mph - N/A   Haze
7:30 AM 78.8 °F - 73.4 °F 83% 29.86 in 5.6 mi SSE 3.5 mph - N/A   Mostly Cloudy
8:00 AM 78.8 °F - 73.4 °F 83% 29.89 in 5.6 mi South 3.5 mph - N/A   Mostly Cloudy
8:30 AM 80.6 °F 85.4 °F 73.4 °F 79% 29.89 in 5.6 mi South 4.6 mph - N/A   Mostly Cloudy
9:00 AM 80.6 °F 85.4 °F 73.4 °F 79% 29.89 in 6.2 mi South 3.5 mph - N/A   Mostly Cloudy
9:30 AM 82.4 °F 88.2 °F 73.4 °F 74% 29.92 in 6.2 mi South 3.5 mph - N/A   Mostly Cloudy
10:00 AM 84.2 °F 90.9 °F 73.4 °F 70% 29.89 in 6.2 mi South 6.9 mph - N/A   Mostly Cloudy
10:30 AM 86.0 °F 91.8 °F 71.6 °F 62% 29.89 in 6.2 mi South 3.5 mph - N/A   Mostly Cloudy
11:00 AM 87.8 °F 93.8 °F 71.6 °F 58% 29.86 in 6.2 mi SSW 2.3 mph - N/A   Scattered Clouds
11:30 AM 87.8 °F 93.8 °F 71.6 °F 58% 29.86 in 6.2 mi SSW 3.5 mph - N/A   Scattered Clouds
12:00 PM 87.8 °F 93.8 °F 71.6 °F 58% 29.83 in 6.2 mi West 5.8 mph - N/A   Scattered Clouds
12:30 PM 80.6 °F 84.6 °F 71.6 °F 74% 29.83 in 3.1 mi South 15.0 mph - N/A Rain Rain
1:00 PM 77.0 °F - 73.4 °F 89% 29.86 in 3.1 mi North 3.5 mph - N/A Rain Rain
1:30 PM 75.2 °F - 71.6 °F 89% 29.83 in 3.7 mi South 8.1 mph - N/A Rain , Thunderstorm Thunderstorms and Rain
2:00 PM 77.0 °F - 73.4 °F 89% 29.83 in 5.6 mi SW 3.5 mph - N/A Rain Light Rain
2:30 PM 78.8 °F - 73.4 °F 83% 29.80 in 5.6 mi WSW 3.5 mph - N/A   Mostly Cloudy
3:00 PM 84.2 °F 92.3 °F 75.2 °F 74% 29.80 in 6.2 mi NNE 3.5 mph - N/A Rain Light Rain
3:30 PM 84.2 °F 90.9 °F 73.4 °F 70% 29.77 in 6.2 mi North 3.5 mph - N/A   Scattered Clouds
4:00 PM 84.2 °F 92.3 °F 75.2 °F 74% 29.77 in 6.2 mi SW 5.8 mph - N/A   Partly Cloudy
4:30 PM 84.2 °F 92.3 °F 75.2 °F 74% 29.80 in 6.2 mi SSW 3.5 mph - N/A   Partly Cloudy
5:00 PM 84.2 °F 90.9 °F 73.4 °F 70% 29.80 in 6.2 mi Calm Calm - N/A   Partly Cloudy
5:30 PM 84.2 °F 92.3 °F 75.2 °F 74% 29.80 in 6.2 mi Calm Calm - N/A   Partly Cloudy
6:00 PM 82.4 °F 89.5 °F 75.2 °F 79% 29.80 in 6.2 mi WNW 3.5 mph - N/A   Partly Cloudy
6:30 PM 82.4 °F 88.2 °F 73.4 °F 74% 29.83 in 6.2 mi WSW 4.6 mph - N/A   Partly Cloudy
7:00 PM 82.4 °F 88.2 °F 73.4 °F 74% 29.83 in 5.6 mi WSW 5.8 mph - N/A   Scattered Clouds
7:30 PM 80.6 °F 85.4 °F 73.4 °F 79% 29.83 in 5.6 mi SW 2.3 mph - N/A   Scattered Clouds
8:00 PM 80.6 °F 86.2 °F 75.2 °F 84% 29.83 in 5.6 mi SW 2.3 mph - N/A   Scattered Clouds
9:00 PM 80.6 °F 86.2 °F 75.2 °F 84% 29.89 in 5.6 mi SW 4.6 mph - N/A   Scattered Clouds
9:30 PM 80.6 °F 86.2 °F 75.2 °F 84% 29.89 in 5.6 mi SSW 3.5 mph - N/A   Scattered Clouds
10:00 PM 80.6 °F 85.4 °F 73.4 °F 79% 29.89 in 5.6 mi WSW 6.9 mph - N/A   Partly Cloudy
10:30 PM 80.6 °F 85.4 °F 73.4 °F 79% 29.89 in 5.6 mi WSW 5.8 mph - N/A   Partly Cloudy
11:00 PM 80.6 °F 85.4 °F 73.4 °F 79% 29.89 in 5.6 mi South 3.5 mph - N/A   Partly Cloudy
11:30 PM 80.6 °F 86.2 °F 75.2 °F 84% 29.89 in 5.6 mi SSW 3.5 mph - N/A   Partly Cloudy